GFSFLT1_prec_precacc12_078.txt.gz
Total_Precipitation_Accumulation
0.00 0.00 0.00 0.00 0.00 0.00 0.00 0.04 0.09 0.10 0.09 0.04 0.01 0.01 0.00 0.00 0.02 0.04 0.04 0.03 0.03 0.03 0.01 0.00 0.00 0.00 0.00 0.00 0.00 0.00 0.00 0.00
0.00 0.00 0.00 0.00 0.00 0.00 0.00 0.01 0.06 0.09 0.07 0.02 0.00 0.00 0.00 0.00 0.03 0.04 0.06 0.04 0.03 0.04 0.01 0.00 0.00 0.00 0.00 0.00 0.00 0.00 0.00 0.00
0.00 0.00 0.00 0.00 0.00 0.00 0.00 0.00 0.02 0.02 0.01 0.00 0.00 0.00 0.00 0.00 0.02 0.03 0.04 0.02 0.03 0.05 0.01 0.00 0.00 0.00 0.00 0.00 0.00 0.00 0.00 0.00
0.00 0.00 0.00 0.00 0.00 0.00 0.00 0.00 0.00 0.00 0.00 0.00 0.00 0.00 0.00 0.00 0.01 0.02 0.03 0.05 0.06 0.04 0.05 0.01 0.01 0.01 0.00 0.00 0.00 0.00 0.00 0.00
0.00 0.00 0.00 0.00 0.00 0.00 0.00 0.00 0.00 0.00 0.00 0.00 0.00 0.00 0.00 0.00 0.00 0.00 0.01 0.01 0.00 0.00 0.02 0.01 0.00 0.01 0.00 0.00 0.00 0.00 0.00 0.00
0.00 0.00 0.00 0.00 0.00 0.00 0.00 0.00 0.00 0.00 0.00 0.00 0.00 0.00 0.00 0.00 0.00 0.00 0.00 0.02 0.04 0.04 0.04 0.03 0.02 0.03 0.04 0.02 0.02 0.04 0.06 0.04
0.00 0.00 0.00 0.00 0.00 0.00 0.00 0.00 0.00 0.00 0.00 0.00 0.03 0.06 0.00 0.00 0.07 0.08 0.01 0.06 0.07 0.08 0.07 0.06 0.04 0.04 0.09 0.10 0.11 0.09 0.05 0.03
0.00 0.00 0.00 0.00 0.00 0.00 0.00 0.00 0.00 0.00 0.00 0.08 0.03 0.04 0.02 0.00 0.05 0.04 0.04 0.13 0.17 0.09 0.08 0.07 0.04 0.05 0.05 0.04 0.05 0.07 0.07 0.15
0.00 0.01 0.01 0.01 0.00 0.00 0.00 0.00 0.00 0.00 0.00 0.02 0.06 0.00 0.02 0.08 0.02 0.07 0.06 0.06 0.12 0.27 0.11 0.07 0.10 0.05 0.05 0.07 0.11 0.14 0.22 0.35
0.00 0.01 0.01 0.02 0.01 0.01 0.00 0.00 0.00 0.00 0.00 0.00 0.02 0.05 0.02 0.07 0.07 0.05 0.20 0.17 0.10 0.15 0.20 0.14 0.14 0.12 0.13 0.18 0.29 0.41 0.41 0.34
0.00 0.00 0.00 0.03 0.02 0.04 0.06 0.03 0.03 0.01 0.00 0.00 0.00 0.04 0.08 0.07 0.15 0.31 0.42 0.21 0.17 0.26 0.38 0.41 0.38 0.33 0.31 0.28 0.24 0.19 0.15 0.16
0.00 0.00 0.00 0.01 0.03 0.05 0.05 0.09 0.08 0.07 0.08 0.04 0.00 0.01 0.11 0.25 0.28 0.63 0.44 0.42 0.60 0.70 0.59 0.40 0.33 0.30 0.24 0.21 0.24 0.29 0.30 0.22
0.00 0.00 0.01 0.03 0.06 0.08 0.03 0.14 0.30 0.09 0.11 0.15 0.10 0.21 0.44 0.75 0.75 0.89 1.11 1.29 0.98 0.63 0.42 0.41 0.40 0.33 0.29 0.31 0.30 0.19 0.09 0.03
0.00 0.00 0.00 0.00 0.01 0.08 0.07 0.06 0.18 0.18 0.31 0.25 0.42 0.59 0.57 0.75 0.63 0.54 0.51 0.43 0.37 0.37 0.37 0.30 0.21 0.16 0.10 0.07 0.03 0.01 0.01 0.00
0.00 0.00 0.00 0.00 0.00 0.01 0.01 0.03 0.07 0.15 0.20 0.20 0.21 0.28 0.44 0.36 0.39 0.40 0.36 0.29 0.20 0.11 0.07 0.04 0.02 0.02 0.01 0.01 0.00 0.00 0.00 0.00
0.00 0.00 0.00 0.00 0.00 0.00 0.00 0.00 0.03 0.08 0.13 0.17 0.16 0.21 0.27 0.23 0.16 0.14 0.09 0.07 0.05 0.04 0.04 0.02 0.01 0.00 0.00 0.00 0.00 0.00 0.00 0.00
0.00 0.00 0.00 0.00 0.01 0.01 0.02 0.01 0.02 0.09 0.12 0.21 0.17 0.16 0.15 0.12 0.09 0.06 0.05 0.05 0.02 0.02 0.01 0.00 0.00 0.00 0.01 0.00 0.00 0.00 0.00 0.00
0.00 0.00 0.00 0.02 0.02 0.02 0.02 0.03 0.05 0.08 0.08 0.10 0.09 0.09 0.08 0.07 0.04 0.03 0.02 0.02 0.01 0.00 0.00 0.00 0.00 0.00 0.01 0.00 0.00 0.00 0.00 0.00
0.00 0.00 0.01 0.00 0.00 0.00 0.00 0.00 0.01 0.03 0.03 0.04 0.03 0.02 0.01 0.00 0.00 0.00 0.00 0.00 0.00 0.00 0.00 0.00 0.00 0.00 0.00 0.00 0.00 0.00 0.00 0.00

GFSFLT1_prec_precacc12_081.txt.gz
Total_Precipitation_Accumulation
0.00 0.00 0.01 0.01 0.01 0.01 0.01 0.08 0.09 0.12 0.10 0.07 0.01 0.01 0.00 0.00 0.00 0.00 0.02 0.03 0.03 0.03 0.01 0.00 0.00 0.00 0.00 0.00 0.00 0.00 0.00 0.00
0.00 0.00 0.00 0.00 0.00 0.00 0.00 0.02 0.04 0.07 0.10 0.05 0.01 0.01 0.00 0.00 0.00 0.02 0.05 0.04 0.02 0.04 0.01 0.00 0.00 0.00 0.00 0.00 0.00 0.00 0.00 0.00
0.00 0.00 0.00 0.00 0.00 0.00 0.00 0.00 0.01 0.02 0.03 0.01 0.00 0.00 0.00 0.00 0.00 0.01 0.03 0.01 0.01 0.04 0.01 0.00 0.00 0.00 0.00 0.00 0.00 0.00 0.00 0.00
0.00 0.00 0.00 0.00 0.00 0.00 0.00 0.00 0.00 0.00 0.00 0.00 0.00 0.00 0.00 0.00 0.01 0.01 0.02 0.03 0.04 0.04 0.05 0.01 0.01 0.01 0.00 0.00 0.00 0.00 0.00 0.00
0.00 0.00 0.00 0.00 0.00 0.00 0.00 0.00 0.00 0.00 0.00 0.00 0.00 0.00 0.00 0.00 0.00 0.00 0.01 0.00 0.00 0.00 0.02 0.01 0.00 0.01 0.00 0.01 0.02 0.02 0.02 0.00
0.00 0.00 0.00 0.00 0.00 0.00 0.00 0.00 0.00 0.00 0.00 0.00 0.00 0.00 0.00 0.00 0.00 0.00 0.00 0.00 0.01 0.01 0.03 0.03 0.02 0.03 0.04 0.06 0.04 0.07 0.07 0.05
0.00 0.00 0.00 0.00 0.00 0.00 0.00 0.00 0.00 0.00 0.00 0.00 0.03 0.06 0.00 0.00 0.06 0.08 0.00 0.04 0.04 0.05 0.05 0.06 0.04 0.04 0.10 0.15 0.16 0.13 0.07 0.04
0.00 0.00 0.00 0.00 0.00 0.00 0.00 0.00 0.00 0.00 0.00 0.08 0.03 0.04 0.02 0.00 0.05 0.03 0.02 0.10 0.13 0.05 0.06 0.06 0.03 0.06 0.09 0.12 0.10 0.09 0.08 0.16
0.00 0.01 0.01 0.01 0.00 0.00 0.00 0.00 0.00 0.00 0.00 0.02 0.06 0.00 0.02 0.04 0.02 0.06 0.05 0.05 0.08 0.24 0.09 0.06 0.12 0.12 0.18 0.18 0.15 0.15 0.22 0.35
0.00 0.01 0.01 0.02 0.02 0.01 0.00 0.00 0.00 0.00 0.00 0.00 0.02 0.05 0.02 0.06 0.07 0.05 0.19 0.17 0.09 0.12 0.17 0.18 0.25 0.27 0.29 0.29 0.35 0.40 0.38 0.34
0.00 0.00 0.00 0.03 0.04 0.07 0.09 0.04 0.03 0.01 0.00 0.00 0.00 0.04 0.08 0.07 0.13 0.30 0.43 0.29 0.19 0.23 0.33 0.41 0.50 0.57 0.54 0.40 0.31 0.23 0.14 0.16
0.00 0.00 0.00 0.01 0.05 0.09 0.12 0.16 0.12 0.12 0.10 0.06 0.02 0.02 0.11 0.24 0.27 0.64 0.51 0.45 0.59 0.80 0.93 0.95 0.83 0.63 0.50 0.48 0.36 0.29 0.26 0.20
0.00 0.00 0.01 0.03 0.06 0.08 0.06 0.21 0.40 0.20 0.16 0.21 0.16 0.28 0.50 0.78 0.76 0.95 1.19 1.37 1.24 1.18 0.85 0.53 0.38 0.28 0.27 0.31 0.23 0.12 0.06 0.03
0.00 0.00 0.00 0.00 0.01 0.08 0.07 0.07 0.22 0.23 0.35 0.30 0.50 0.67 0.58 0.77 0.72 0.67 0.72 0.57 0.39 0.26 0.15 0.09 0.09 0.11 0.09 0.05 0.01 0.01 0.01 0.01
0.00 0.00 0.00 0.00 0.00 0.01 0.01 0.03 0.07 0.16 0.21 0.20 0.21 0.27 0.47 0.39 0.43 0.46 0.52 0.49 0.33 0.18 0.11 0.05 0.03 0.04 0.05 0.02 0.00 0.00 0.00 0.00
0.00 0.00 0.00 0.00 0.00 0.00 0.00 0.00 0.03 0.06 0.10 0.16 0.14 0.20 0.27 0.25 0.21 0.21 0.17 0.15 0.10 0.13 0.09 0.05 0.03 0.04 0.03 0.02 0.00 0.00 0.01 0.01
0.00 0.00 0.00 0.00 0.01 0.01 0.01 0.01 0.02 0.07 0.08 0.14 0.13 0.16 0.17 0.15 0.14 0.10 0.11 0.10 0.05 0.04 0.03 0.03 0.02 0.02 0.06 0.04 0.02 0.00 0.01 0.00
0.00 0.00 0.00 0.02 0.02 0.00 0.00 0.01 0.01 0.03 0.03 0.07 0.08 0.10 0.10 0.09 0.06 0.05 0.05 0.04 0.03 0.04 0.03 0.03 0.04 0.04 0.08 0.04 0.02 0.00 0.00 0.00
0.00 0.00 0.01 0.00 0.00 0.00 0.00 0.00 0.01 0.03 0.03 0.04 0.04 0.02 0.01 0.01 0.01 0.01 0.02 0.02 0.01 0.01 0.03 0.03 0.03 0.03 0.03 0.01 0.00 0.00 0.00 0.00

GFSFLT1_prec_precacc12_084.txt.gz
Total_Precipitation_Accumulation
0.00 0.00 0.01 0.01 0.01 0.04 0.04 0.21 0.13 0.20 0.06 0.05 0.02 0.02 0.00 0.00 0.00 0.00 0.00 0.01 0.03 0.03 0.01 0.00 0.00 0.00 0.00 0.00 0.00 0.00 0.00 0.00
0.00 0.00 0.00 0.00 0.00 0.01 0.00 0.05 0.06 0.19 0.06 0.11 0.04 0.01 0.01 0.01 0.00 0.00 0.01 0.01 0.02 0.03 0.01 0.00 0.00 0.00 0.00 0.00 0.00 0.00 0.00 0.00
0.00 0.00 0.00 0.00 0.01 0.01 0.00 0.00 0.00 0.04 0.04 0.07 0.05 0.00 0.00 0.01 0.01 0.02 0.00 0.00 0.01 0.04 0.01 0.01 0.00 0.00 0.00 0.00 0.00 0.00 0.00 0.00
0.00 0.00 0.00 0.00 0.00 0.00 0.00 0.00 0.00 0.00 0.01 0.01 0.01 0.00 0.00 0.00 0.01 0.02 0.03 0.03 0.06 0.05 0.05 0.01 0.02 0.01 0.00 0.00 0.00 0.00 0.00 0.00
0.00 0.00 0.00 0.00 0.00 0.00 0.00 0.00 0.00 0.00 0.00 0.00 0.00 0.00 0.00 0.00 0.00 0.00 0.01 0.01 0.01 0.01 0.02 0.01 0.00 0.00 0.00 0.01 0.02 0.02 0.02 0.01
0.00 0.00 0.00 0.00 0.00 0.00 0.00 0.00 0.00 0.00 0.00 0.00 0.00 0.00 0.00 0.00 0.00 0.00 0.00 0.00 0.00 0.01 0.02 0.00 0.00 0.02 0.04 0.06 0.04 0.07 0.08 0.07
0.00 0.00 0.00 0.00 0.00 0.00 0.00 0.00 0.00 0.00 0.00 0.00 0.03 0.05 0.00 0.00 0.00 0.00 0.00 0.03 0.01 0.02 0.02 0.04 0.03 0.03 0.10 0.15 0.16 0.14 0.08 0.06
0.00 0.00 0.00 0.00 0.00 0.00 0.00 0.00 0.00 0.00 0.00 0.08 0.03 0.04 0.02 0.00 0.00 0.00 0.00 0.08 0.11 0.03 0.04 0.04 0.01 0.04 0.07 0.10 0.09 0.10 0.11 0.17
0.00 0.01 0.01 0.01 0.00 0.00 0.00 0.00 0.00 0.00 0.00 0.02 0.06 0.00 0.02 0.01 0.00 0.03 0.03 0.03 0.08 0.24 0.08 0.05 0.11 0.09 0.15 0.18 0.19 0.22 0.32 0.44
0.00 0.01 0.01 0.02 0.02 0.01 0.00 0.00 0.00 0.00 0.00 0.00 0.02 0.05 0.01 0.02 0.05 0.03 0.15 0.17 0.09 0.12 0.17 0.16 0.21 0.18 0.18 0.25 0.34 0.45 0.51 0.48
0.00 0.00 0.00 0.03 0.04 0.08 0.09 0.05 0.03 0.01 0.00 0.00 0.00 0.04 0.07 0.06 0.09 0.14 0.37 0.27 0.21 0.25 0.33 0.34 0.32 0.36 0.36 0.43 0.59 0.64 0.53 0.39
0.00 0.00 0.00 0.01 0.05 0.08 0.14 0.17 0.12 0.12 0.10 0.06 0.02 0.01 0.08 0.20 0.22 0.57 0.48 0.41 0.59 0.85 0.97 0.94 0.80 0.61 0.54 0.57 0.49 0.42 0.32 0.20
0.00 0.00 0.01 0.03 0.06 0.08 0.05 0.22 0.41 0.23 0.18 0.19 0.11 0.23 0.42 0.70 0.68 0.89 1.11 1.34 1.28 1.26 0.97 0.70 0.52 0.30 0.16 0.11 0.09 0.09 0.06 0.05
0.00 0.00 0.00 0.00 0.01 0.08 0.07 0.07 0.23 0.25 0.31 0.24 0.41 0.50 0.53 0.74 0.68 0.67 0.74 0.59 0.47 0.40 0.38 0.37 0.26 0.09 0.06 0.04 0.04 0.08 0.10 0.08
0.00 0.00 0.00 0.00 0.00 0.01 0.01 0.03 0.07 0.13 0.15 0.13 0.11 0.21 0.42 0.36 0.43 0.45 0.54 0.54 0.41 0.31 0.25 0.21 0.16 0.12 0.08 0.04 0.03 0.05 0.04 0.03
0.00 0.00 0.00 0.00 0.00 0.00 0.00 0.00 0.03 0.06 0.10 0.10 0.08 0.11 0.17 0.18 0.16 0.19 0.19 0.17 0.15 0.24 0.19 0.14 0.09 0.06 0.06 0.05 0.04 0.05 0.04 0.04
0.00 0.00 0.00 0.00 0.00 0.00 0.00 0.00 0.00 0.04 0.04 0.06 0.06 0.07 0.09 0.11 0.13 0.12 0.14 0.14 0.09 0.09 0.08 0.07 0.06 0.05 0.12 0.08 0.05 0.03 0.04 0.03
0.00 0.00 0.00 0.00 0.00 0.00 0.00 0.01 0.01 0.02 0.02 0.04 0.04 0.06 0.06 0.08 0.06 0.06 0.06 0.07 0.05 0.05 0.05 0.05 0.06 0.07 0.16 0.08 0.07 0.04 0.03 0.03
0.00 0.00 0.00 0.00 0.00 0.00 0.00 0.00 0.00 0.00 0.01 0.03 0.03 0.02 0.02 0.01 0.02 0.03 0.02 0.02 0.02 0.03 0.05 0.07 0.07 0.11 0.12 0.05 0.04 0.01 0.01 0.01

GFSFLT1_prec_precacc12_087.txt.gz
Total_Precipitation_Accumulation
0.00 0.00 0.01 0.01 0.02 0.08 0.12 0.23 0.14 0.29 0.09 0.07 0.07 0.11 0.04 0.04 0.04 0.01 0.01 0.00 0.00 0.00 0.00 0.00 0.00 0.00 0.00 0.00 0.00 0.00 0.00 0.00
0.00 0.00 0.00 0.00 0.00 0.01 0.02 0.08 0.09 0.20 0.07 0.12 0.06 0.07 0.05 0.03 0.02 0.01 0.01 0.00 0.00 0.00 0.00 0.00 0.00 0.00 0.00 0.00 0.00 0.00 0.00 0.00
0.00 0.00 0.00 0.00 0.01 0.01 0.00 0.00 0.02 0.06 0.07 0.10 0.07 0.01 0.01 0.02 0.02 0.02 0.01 0.00 0.00 0.00 0.00 0.00 0.00 0.00 0.00 0.00 0.00 0.00 0.00 0.00
0.00 0.00 0.00 0.00 0.00 0.00 0.00 0.00 0.00 0.01 0.04 0.05 0.09 0.00 0.00 0.02 0.02 0.03 0.02 0.01 0.01 0.02 0.00 0.00 0.01 0.01 0.00 0.00 0.00 0.00 0.00 0.00
0.00 0.00 0.00 0.00 0.00 0.00 0.00 0.00 0.00 0.00 0.00 0.01 0.02 0.00 0.00 0.00 0.00 0.00 0.00 0.01 0.01 0.01 0.01 0.00 0.01 0.00 0.01 0.01 0.02 0.02 0.02 0.02
0.00 0.00 0.00 0.00 0.00 0.00 0.00 0.00 0.00 0.00 0.00 0.00 0.00 0.00 0.00 0.00 0.00 0.00 0.00 0.00 0.01 0.01 0.00 0.00 0.00 0.02 0.03 0.06 0.05 0.07 0.08 0.06
0.00 0.00 0.00 0.00 0.00 0.00 0.00 0.00 0.00 0.00 0.00 0.00 0.00 0.00 0.00 0.00 0.00 0.00 0.00 0.00 0.00 0.00 0.00 0.01 0.00 0.01 0.05 0.06 0.11 0.12 0.06 0.04
0.00 0.00 0.00 0.00 0.00 0.00 0.00 0.00 0.00 0.00 0.00 0.00 0.00 0.00 0.00 0.00 0.00 0.00 0.00 0.00 0.00 0.00 0.02 0.02 0.00 0.03 0.06 0.09 0.07 0.05 0.06 0.07
0.00 0.00 0.01 0.00 0.00 0.00 0.00 0.00 0.00 0.00 0.00 0.00 0.00 0.00 0.00 0.00 0.00 0.00 0.00 0.00 0.00 0.12 0.03 0.05 0.11 0.09 0.14 0.15 0.13 0.12 0.16 0.26
0.00 0.00 0.00 0.02 0.01 0.01 0.00 0.00 0.00 0.00 0.00 0.00 0.00 0.01 0.00 0.02 0.05 0.00 0.00 0.02 0.01 0.05 0.13 0.15 0.20 0.17 0.18 0.20 0.19 0.22 0.29 0.34
0.00 0.00 0.00 0.01 0.03 0.07 0.08 0.04 0.03 0.01 0.00 0.00 0.00 0.02 0.03 0.05 0.09 0.05 0.06 0.15 0.20 0.22 0.31 0.32 0.32 0.36 0.36 0.41 0.53 0.61 0.56 0.48
0.00 0.00 0.00 0.00 0.03 0.06 0.15 0.14 0.10 0.11 0.10 0.06 0.02 0.01 0.07 0.16 0.17 0.28 0.29 0.30 0.49 0.79 0.94 0.93 0.81 0.70 0.72 0.80 0.69 0.51 0.33 0.22
0.00 0.00 0.00 0.00 0.00 0.01 0.04 0.18 0.22 0.19 0.11 0.09 0.08 0.09 0.17 0.31 0.35 0.58 0.91 1.23 1.18 1.19 0.94 0.72 0.59 0.50 0.43 0.39 0.24 0.11 0.08 0.06
0.00 0.00 0.00 0.00 0.00 0.00 0.00 0.05 0.14 0.15 0.14 0.09 0.14 0.24 0.26 0.33 0.37 0.46 0.64 0.50 0.37 0.38 0.42 0.42 0.36 0.35 0.42 0.39 0.13 0.09 0.10 0.09
0.00 0.00 0.00 0.00 0.00 0.00 0.00 0.00 0.02 0.03 0.07 0.04 0.04 0.12 0.18 0.26 0.38 0.35 0.43 0.50 0.40 0.33 0.28 0.24 0.21 0.17 0.14 0.11 0.09 0.08 0.06 0.03
0.00 0.00 0.00 0.00 0.00 0.00 0.00 0.00 0.01 0.01 0.03 0.03 0.03 0.04 0.05 0.14 0.13 0.17 0.20 0.19 0.18 0.26 0.21 0.17 0.13 0.10 0.10 0.08 0.06 0.07 0.07 0.05
0.00 0.00 0.00 0.00 0.00 0.00 0.00 0.00 0.00 0.01 0.02 0.02 0.02 0.03 0.05 0.07 0.09 0.09 0.12 0.15 0.11 0.11 0.11 0.10 0.08 0.07 0.19 0.13 0.09 0.04 0.06 0.07
0.00 0.00 0.00 0.00 0.00 0.00 0.00 0.00 0.00 0.01 0.02 0.02 0.02 0.02 0.03 0.04 0.05 0.06 0.07 0.07 0.05 0.06 0.06 0.06 0.07 0.09 0.21 0.12 0.11 0.07 0.09 0.12
0.00 0.00 0.00 0.00 0.00 0.00 0.00 0.00 0.00 0.00 0.01 0.02 0.02 0.01 0.01 0.01 0.02 0.03 0.03 0.02 0.02 0.03 0.06 0.08 0.09 0.14 0.18 0.09 0.10 0.04 0.06 0.07

GFSFLT1_prec_precacc12_093.txt.gz
Total_Precipitation_Accumulation
0.00 0.00 0.00 0.01 0.02 0.08 0.11 0.16 0.09 0.24 0.09 0.28 0.35 0.44 0.51 0.33 0.20 0.06 0.02 0.00 0.00 0.00 0.00 0.00 0.00 0.00 0.00 0.00 0.00 0.00 0.00 0.00
0.00 0.00 0.00 0.00 0.01 0.02 0.02 0.07 0.08 0.20 0.06 0.19 0.26 0.36 0.48 0.41 0.23 0.07 0.02 0.00 0.00 0.00 0.00 0.00 0.00 0.00 0.00 0.00 0.00 0.00 0.00 0.00
0.00 0.00 0.00 0.00 0.01 0.01 0.01 0.01 0.02 0.06 0.06 0.12 0.13 0.15 0.28 0.28 0.19 0.07 0.03 0.01 0.00 0.00 0.00 0.00 0.00 0.00 0.00 0.00 0.00 0.00 0.00 0.00
0.00 0.00 0.00 0.00 0.01 0.01 0.01 0.00 0.00 0.02 0.04 0.05 0.11 0.06 0.08 0.11 0.12 0.08 0.03 0.02 0.01 0.02 0.01 0.00 0.01 0.00 0.00 0.00 0.00 0.00 0.00 0.00
0.00 0.00 0.00 0.00 0.00 0.00 0.00 0.00 0.00 0.00 0.00 0.01 0.03 0.02 0.01 0.01 0.01 0.03 0.02 0.01 0.01 0.02 0.01 0.00 0.01 0.00 0.00 0.00 0.00 0.00 0.01 0.02
0.00 0.00 0.00 0.00 0.00 0.01 0.00 0.00 0.00 0.00 0.00 0.00 0.00 0.00 0.00 0.00 0.00 0.01 0.01 0.01 0.02 0.01 0.00 0.01 0.00 0.00 0.00 0.00 0.01 0.01 0.01 0.02
0.00 0.00 0.00 0.00 0.00 0.00 0.01 0.00 0.00 0.00 0.00 0.00 0.00 0.00 0.00 0.00 0.00 0.00 0.00 0.00 0.01 0.01 0.01 0.01 0.00 0.00 0.00 0.00 0.00 0.01 0.02 0.03
0.00 0.00 0.00 0.00 0.00 0.00 0.00 0.00 0.00 0.00 0.00 0.00 0.00 0.00 0.00 0.00 0.00 0.00 0.00 0.00 0.00 0.01 0.01 0.00 0.00 0.00 0.00 0.01 0.04 0.04 0.07 0.10
0.00 0.00 0.00 0.00 0.00 0.00 0.00 0.00 0.00 0.00 0.00 0.00 0.00 0.00 0.00 0.00 0.00 0.00 0.00 0.00 0.00 0.00 0.00 0.00 0.01 0.00 0.02 0.12 0.14 0.14 0.15 0.16
0.00 0.00 0.00 0.00 0.00 0.00 0.00 0.00 0.00 0.00 0.00 0.00 0.00 0.00 0.00 0.00 0.00 0.00 0.00 0.00 0.00 0.00 0.00 0.00 0.00 0.00 0.02 0.08 0.10 0.14 0.21 0.29
0.00 0.00 0.00 0.00 0.00 0.01 0.00 0.00 0.00 0.00 0.00 0.00 0.00 0.00 0.00 0.00 0.00 0.00 0.00 0.01 0.03 0.03 0.03 0.02 0.02 0.04 0.06 0.20 0.37 0.51 0.56 0.49
0.00 0.00 0.00 0.00 0.00 0.01 0.04 0.01 0.01 0.00 0.00 0.00 0.00 0.00 0.00 0.00 0.00 0.00 0.00 0.01 0.04 0.06 0.07 0.10 0.12 0.20 0.32 0.42 0.56 0.58 0.47 0.33
0.00 0.00 0.00 0.00 0.00 0.00 0.00 0.00 0.02 0.06 0.04 0.00 0.00 0.00 0.00 0.00 0.00 0.00 0.00 0.02 0.06 0.10 0.15 0.22 0.24 0.30 0.32 0.37 0.41 0.42 0.38 0.24
0.00 0.00 0.00 0.00 0.00 0.00 0.00 0.00 0.00 0.04 0.05 0.03 0.05 0.03 0.02 0.03 0.03 0.02 0.04 0.04 0.09 0.18 0.29 0.35 0.31 0.32 0.39 0.43 0.35 0.29 0.20 0.14
0.00 0.00 0.00 0.00 0.00 0.00 0.00 0.00 0.00 0.00 0.00 0.00 0.02 0.02 0.02 0.02 0.05 0.05 0.07 0.10 0.12 0.16 0.18 0.20 0.18 0.14 0.09 0.10 0.11 0.10 0.09 0.08
0.00 0.00 0.00 0.00 0.00 0.00 0.00 0.00 0.00 0.00 0.00 0.00 0.00 0.01 0.00 0.02 0.04 0.04 0.06 0.07 0.10 0.16 0.14 0.14 0.12 0.07 0.10 0.11 0.12 0.11 0.10 0.11
0.00 0.00 0.00 0.00 0.00 0.00 0.00 0.00 0.00 0.00 0.00 0.00 0.00 0.00 0.00 0.01 0.02 0.04 0.05 0.07 0.08 0.09 0.09 0.09 0.08 0.07 0.18 0.16 0.13 0.08 0.14 0.18
0.00 0.00 0.00 0.00 0.00 0.00 0.00 0.00 0.00 0.00 0.00 0.00 0.00 0.00 0.00 0.01 0.02 0.03 0.03 0.04 0.04 0.04 0.05 0.05 0.06 0.07 0.25 0.14 0.16 0.08 0.12 0.16
0.00 0.00 0.00 0.00 0.00 0.00 0.00 0.00 0.00 0.00 0.00 0.00 0.01 0.01 0.00 0.01 0.02 0.03 0.02 0.02 0.03 0.04 0.06 0.07 0.09 0.19 0.24 0.12 0.13 0.06 0.09 0.15

GFSFLT1_prec_precacc12_096.txt.gz
Total_Precipitation_Accumulation
0.00 0.00 0.00 0.00 0.01 0.05 0.08 0.02 0.03 0.12 0.08 0.27 0.34 0.45 0.56 0.38 0.26 0.11 0.06 0.01 0.00 0.00 0.01 0.01 0.02 0.00 0.00 0.00 0.00 0.00 0.00 0.00
0.00 0.00 0.00 0.00 0.01 0.01 0.02 0.03 0.04 0.03 0.04 0.12 0.24 0.37 0.56 0.45 0.31 0.14 0.08 0.02 0.00 0.00 0.00 0.00 0.00 0.00 0.00 0.00 0.00 0.00 0.00 0.00
0.00 0.00 0.00 0.00 0.01 0.01 0.00 0.01 0.02 0.02 0.04 0.07 0.10 0.18 0.36 0.34 0.30 0.18 0.07 0.02 0.00 0.00 0.00 0.00 0.00 0.00 0.00 0.00 0.00 0.00 0.00 0.00
0.00 0.00 0.00 0.00 0.00 0.00 0.00 0.00 0.01 0.02 0.03 0.07 0.14 0.08 0.12 0.20 0.23 0.18 0.05 0.02 0.01 0.01 0.00 0.00 0.00 0.00 0.00 0.00 0.00 0.00 0.00 0.00
0.00 0.00 0.00 0.00 0.00 0.01 0.00 0.00 0.00 0.01 0.01 0.01 0.04 0.04 0.04 0.03 0.03 0.06 0.07 0.05 0.05 0.04 0.04 0.02 0.02 0.02 0.02 0.00 0.00 0.00 0.00 0.01
0.00 0.00 0.00 0.00 0.00 0.00 0.01 0.00 0.00 0.00 0.00 0.00 0.00 0.00 0.01 0.01 0.01 0.02 0.04 0.04 0.04 0.03 0.02 0.04 0.03 0.03 0.04 0.03 0.01 0.01 0.01 0.01
0.00 0.00 0.00 0.00 0.00 0.00 0.01 0.00 0.00 0.00 0.00 0.01 0.00 0.00 0.00 0.00 0.00 0.00 0.01 0.01 0.01 0.01 0.01 0.04 0.04 0.03 0.03 0.04 0.03 0.02 0.02 0.02
0.00 0.00 0.00 0.00 0.00 0.00 0.00 0.00 0.00 0.00 0.00 0.00 0.00 0.00 0.00 0.00 0.00 0.00 0.00 0.00 0.00 0.01 0.01 0.03 0.03 0.04 0.02 0.03 0.05 0.04 0.05 0.09
0.00 0.00 0.00 0.00 0.00 0.00 0.00 0.00 0.00 0.00 0.00 0.00 0.00 0.00 0.00 0.00 0.00 0.00 0.00 0.00 0.00 0.00 0.00 0.01 0.03 0.05 0.07 0.09 0.07 0.06 0.07 0.08
0.00 0.00 0.00 0.00 0.00 0.00 0.00 0.00 0.00 0.00 0.00 0.00 0.00 0.00 0.00 0.00 0.00 0.00 0.00 0.00 0.00 0.00 0.00 0.00 0.01 0.02 0.03 0.06 0.06 0.06 0.07 0.16
0.00 0.00 0.00 0.00 0.00 0.00 0.00 0.00 0.00 0.00 0.00 0.00 0.00 0.00 0.00 0.00 0.00 0.00 0.00 0.00 0.00 0.00 0.00 0.00 0.01 0.02 0.03 0.05 0.06 0.06 0.11 0.17
0.00 0.00 0.00 0.00 0.00 0.00 0.01 0.00 0.00 0.00 0.00 0.00 0.00 0.00 0.00 0.00 0.00 0.00 0.00 0.00 0.00 0.00 0.01 0.01 0.03 0.11 0.21 0.25 0.27 0.25 0.24 0.22
0.00 0.00 0.00 0.00 0.00 0.00 0.00 0.00 0.01 0.03 0.03 0.00 0.00 0.00 0.00 0.00 0.00 0.00 0.00 0.00 0.00 0.02 0.03 0.04 0.07 0.20 0.29 0.35 0.36 0.34 0.32 0.20
0.00 0.00 0.00 0.00 0.00 0.00 0.00 0.00 0.00 0.01 0.02 0.03 0.03 0.00 0.00 0.00 0.00 0.00 0.00 0.00 0.01 0.03 0.05 0.06 0.10 0.27 0.39 0.43 0.32 0.21 0.12 0.07
0.00 0.00 0.00 0.00 0.00 0.00 0.00 0.00 0.00 0.00 0.00 0.00 0.01 0.01 0.01 0.00 0.01 0.01 0.02 0.03 0.04 0.03 0.03 0.04 0.05 0.06 0.07 0.08 0.08 0.06 0.06 0.08
0.00 0.00 0.00 0.00 0.00 0.00 0.00 0.00 0.00 0.00 0.00 0.00 0.00 0.01 0.00 0.01 0.01 0.02 0.03 0.04 0.05 0.05 0.04 0.06 0.07 0.05 0.06 0.08 0.09 0.07 0.08 0.12
0.00 0.00 0.00 0.00 0.00 0.00 0.00 0.00 0.00 0.00 0.00 0.00 0.00 0.00 0.00 0.00 0.01 0.01 0.02 0.03 0.04 0.04 0.05 0.05 0.05 0.05 0.13 0.12 0.11 0.05 0.13 0.21
0.00 0.00 0.00 0.00 0.00 0.00 0.00 0.00 0.00 0.00 0.00 0.00 0.00 0.00 0.00 0.00 0.01 0.01 0.01 0.02 0.02 0.02 0.02 0.03 0.04 0.05 0.18 0.10 0.12 0.06 0.17 0.22
0.00 0.00 0.00 0.00 0.00 0.00 0.00 0.00 0.00 0.00 0.00 0.00 0.00 0.00 0.00 0.00 0.01 0.02 0.02 0.02 0.02 0.02 0.03 0.04 0.05 0.13 0.19 0.09 0.12 0.06 0.13 0.18